Time,TemperatureF,DewpointF,PressureIn,WindDirection,WindDirectionDegrees,WindSpeedMPH,WindSpeedGustMPH,Humidity,HourlyPrecipIn,Conditions,Clouds,dailyrainin,SoftwareType,DateUTC
2013-02-18 00:02:00,19.0,16.0,29.53,North,-999,-999.0,-999.0,85,-99.99,,,-99.99,,2013-02-18 06:02:00,
2013-02-18 00:11:00,19.0,16.0,29.53,North,-999,-999.0,-999.0,85,-99.99,,,-99.99,,2013-02-18 06:11:00,
2013-02-18 00:21:00,21.0,18.0,29.55,North,-999,-999.0,-999.0,85,-99.99,,,-99.99,,2013-02-18 06:21:00,
2013-02-18 00:32:00,21.0,18.0,29.55,North,-999,-999.0,-999.0,85,-99.99,,,-99.99,,2013-02-18 06:32:00,
2013-02-18 00:42:00,21.0,18.0,29.55,North,-999,-999.0,-999.0,85,-99.99,,,-99.99,,2013-02-18 06:42:00,
2013-02-18 00:51:00,25.0,21.0,29.55,North,-999,-999.0,-999.0,85,-99.99,,,-99.99,,2013-02-18 06:51:00,
2013-02-18 01:01:00,25.0,21.0,29.55,North,-999,-999.0,-999.0,85,-99.99,,,-99.99,,2013-02-18 07:01:00,
2013-02-18 01:11:00,25.0,21.0,29.55,North,-999,-999.0,-999.0,85,-99.99,,,-99.99,,2013-02-18 07:11:00,
2013-02-18 01:22:00,25.0,21.0,29.55,North,-999,-999.0,-999.0,85,-99.99,,,-99.99,,2013-02-18 07:22:00,
2013-02-18 01:32:00,27.0,25.0,29.55,North,-999,-999.0,-999.0,92,-99.99,,,-99.99,,2013-02-18 07:32:00,
2013-02-18 01:42:00,27.0,25.0,29.55,North,-999,-999.0,-999.0,92,-99.99,,,-99.99,,2013-02-18 07:42:00,
2013-02-18 01:51:00,27.0,25.0,29.54,North,-999,-999.0,-999.0,92,-99.99,,,-99.99,,2013-02-18 07:51:00,
2013-02-18 02:01:00,27.0,25.0,29.54,North,-999,-999.0,-999.0,92,-99.99,,,-99.99,,2013-02-18 08:01:00,
2013-02-18 02:11:00,27.0,25.0,29.54,North,-999,-999.0,-999.0,92,-99.99,,,-99.99,,2013-02-18 08:11:00,
2013-02-18 02:21:00,27.0,25.0,29.54,North,-999,-999.0,-999.0,92,-99.99,,,-99.99,,2013-02-18 08:21:00,
2013-02-18 02:32:00,27.0,25.0,29.54,North,-999,-999.0,-999.0,92,-99.99,,,-99.99,,2013-02-18 08:32:00,
2013-02-18 03:32:00,36.0,30.0,29.55,North,-999,-999.0,-999.0,80,-99.99,,,-99.99,,2013-02-18 09:32:00,
2013-02-18 04:11:00,36.0,30.0,29.56,North,-999,-999.0,-999.0,80,-99.99,,,-99.99,,2013-02-18 10:11:00,
2013-02-18 04:21:00,36.0,30.0,29.56,North,-999,-999.0,-999.0,80,-99.99,,,-99.99,,2013-02-18 10:21:00,
2013-02-18 04:31:00,36.0,30.0,29.57,North,-999,-999.0,-999.0,80,-99.99,,,-99.99,,2013-02-18 10:31:00,
2013-02-18 04:42:00,36.0,30.0,29.57,North,-999,-999.0,-999.0,80,-99.99,,,-99.99,,2013-02-18 10:42:00,
2013-02-18 04:52:00,36.0,30.0,29.58,North,-999,-999.0,-999.0,80,-99.99,,,-99.99,,2013-02-18 10:52:00,
2013-02-18 05:01:00,36.0,30.0,29.58,North,-999,-999.0,-999.0,80,-99.99,,,-99.99,,2013-02-18 11:01:00,
2013-02-18 05:11:00,36.0,30.0,29.58,North,-999,-999.0,-999.0,80,-99.99,,,-99.99,,2013-02-18 11:11:00,
2013-02-18 05:22:00,36.0,30.0,29.58,North,-999,-999.0,-999.0,80,-99.99,,,-99.99,,2013-02-18 11:22:00,
2013-02-18 05:32:00,36.0,30.0,29.59,North,-999,-999.0,-999.0,80,-99.99,,,-99.99,,2013-02-18 11:32:00,
2013-02-18 05:43:00,36.0,30.0,29.59,North,-999,-999.0,-999.0,80,-99.99,,,-99.99,,2013-02-18 11:43:00,
2013-02-18 05:53:00,36.0,30.0,29.59,North,-999,-999.0,-999.0,80,-99.99,,,-99.99,,2013-02-18 11:53:00,
2013-02-18 06:02:00,36.0,30.0,29.59,North,-999,-999.0,-999.0,80,-99.99,,,-99.99,,2013-02-18 12:02:00,
2013-02-18 06:11:00,36.0,30.0,29.59,North,-999,-999.0,-999.0,80,-99.99,,,-99.99,,2013-02-18 12:11:00,
2013-02-18 06:22:00,36.0,30.0,29.59,North,-999,-999.0,-999.0,80,-99.99,,,-99.99,,2013-02-18 12:22:00,
2013-02-18 06:32:00,36.0,30.0,29.59,North,-999,-999.0,-999.0,80,-99.99,,,-99.99,,2013-02-18 12:32:00,
2013-02-18 06:53:00,25.0,19.0,29.64,North,-999,-999.0,-999.0,79,-99.99,,,-99.99,,2013-02-18 12:53:00,
2013-02-18 07:03:00,25.0,19.0,29.64,North,-999,-999.0,-999.0,79,-99.99,,,-99.99,,2013-02-18 13:03:00,
2013-02-18 07:12:00,25.0,19.0,29.64,North,-999,-999.0,-999.0,79,-99.99,,,-99.99,,2013-02-18 13:12:00,
2013-02-18 07:22:00,25.0,19.0,29.64,North,-999,-999.0,-999.0,79,-99.99,,,-99.99,,2013-02-18 13:22:00,
2013-02-18 07:32:00,23.0,18.0,29.66,North,-999,-999.0,-999.0,79,-99.99,,,-99.99,,2013-02-18 13:32:00,
2013-02-18 07:42:00,23.0,18.0,29.66,North,-999,-999.0,-999.0,79,-99.99,,,-99.99,,2013-02-18 13:42:00,
2013-02-18 07:53:00,21.0,16.0,29.67,North,-999,-999.0,-999.0,79,-99.99,,,-99.99,,2013-02-18 13:53:00,
2013-02-18 08:02:00,21.0,16.0,29.67,North,-999,-999.0,-999.0,79,-99.99,,,-99.99,,2013-02-18 14:02:00,
2013-02-18 08:11:00,21.0,16.0,29.67,North,-999,-999.0,-999.0,79,-99.99,,,-99.99,,2013-02-18 14:11:00,
2013-02-18 08:22:00,21.0,16.0,29.67,North,-999,-999.0,-999.0,79,-99.99,,,-99.99,,2013-02-18 14:22:00,
2013-02-18 08:33:00,21.0,14.0,29.69,North,-999,-999.0,-999.0,73,-99.99,,,-99.99,,2013-02-18 14:33:00,
2013-02-18 08:42:00,21.0,14.0,29.69,North,-999,-999.0,-999.0,73,-99.99,,,-99.99,,2013-02-18 14:42:00,
2013-02-18 08:53:00,21.0,14.0,29.69,North,-999,-999.0,-999.0,73,-99.99,,,-99.99,,2013-02-18 14:53:00,
2013-02-18 09:02:00,21.0,14.0,29.69,North,-999,-999.0,-999.0,73,-99.99,,,-99.99,,2013-02-18 15:02:00,
2013-02-18 09:11:00,21.0,14.0,29.69,North,-999,-999.0,-999.0,73,-99.99,,,-99.99,,2013-02-18 15:11:00,
2013-02-18 09:32:00,18.0,10.0,29.73,North,-999,-999.0,-999.0,72,-99.99,,,-99.99,,2013-02-18 15:32:00,
2013-02-18 09:42:00,18.0,10.0,29.73,North,-999,-999.0,-999.0,72,-99.99,,,-99.99,,2013-02-18 15:42:00,
2013-02-18 09:53:00,18.0,10.0,29.73,North,-999,-999.0,-999.0,72,-99.99,,,-99.99,,2013-02-18 15:53:00,
2013-02-18 10:02:00,18.0,10.0,29.73,North,-999,-999.0,-999.0,72,-99.99,,,-99.99,,2013-02-18 16:02:00,
2013-02-18 10:12:00,16.0,9.0,29.76,North,-999,-999.0,-999.0,72,-99.99,,,-99.99,,2013-02-18 16:12:00,
2013-02-18 10:22:00,16.0,9.0,29.76,North,-999,-999.0,-999.0,72,-99.99,,,-99.99,,2013-02-18 16:22:00,
2013-02-18 10:32:00,14.0,7.0,29.77,North,-999,-999.0,-999.0,72,-99.99,,,-99.99,,2013-02-18 16:32:00,
2013-02-18 10:42:00,14.0,7.0,29.77,North,-999,-999.0,-999.0,72,-99.99,,,-99.99,,2013-02-18 16:42:00,
2013-02-18 10:52:00,14.0,7.0,29.79,North,-999,-999.0,-999.0,72,-99.99,,,-99.99,,2013-02-18 16:52:00,
2013-02-18 11:03:00,14.0,7.0,29.79,North,-999,-999.0,-999.0,72,-99.99,,,-99.99,,2013-02-18 17:03:00,
2013-02-18 11:12:00,12.0,7.0,29.80,North,-999,-999.0,-999.0,78,-99.99,,,-99.99,,2013-02-18 17:12:00,
2013-02-18 11:22:00,12.0,7.0,29.80,North,-999,-999.0,-999.0,78,-99.99,,,-99.99,,2013-02-18 17:22:00,
2013-02-18 11:32:00,12.0,7.0,29.81,North,-999,-999.0,-999.0,78,-99.99,,,-99.99,,2013-02-18 17:32:00,
2013-02-18 11:42:00,12.0,7.0,29.81,North,-999,-999.0,-999.0,78,-99.99,,,-99.99,,2013-02-18 17:42:00,
2013-02-18 11:52:00,12.0,5.0,29.82,North,-999,-999.0,-999.0,72,-99.99,,,-99.99,,2013-02-18 17:52:00,
2013-02-18 12:02:00,12.0,5.0,29.82,North,-999,-999.0,-999.0,72,-99.99,,,-99.99,,2013-02-18 18:02:00,
2013-02-18 12:12:00,12.0,5.0,29.82,North,-999,-999.0,-999.0,72,-99.99,,,-99.99,,2013-02-18 18:12:00,
2013-02-18 12:22:00,12.0,5.0,29.82,North,-999,-999.0,-999.0,72,-99.99,,,-99.99,,2013-02-18 18:22:00,
2013-02-18 12:32:00,12.0,5.0,29.82,North,-999,-999.0,-999.0,72,-99.99,,,-99.99,,2013-02-18 18:32:00,
2013-02-18 12:53:00,10.0,3.0,29.82,North,-999,-999.0,-999.0,72,-99.99,,,-99.99,,2013-02-18 18:53:00,
2013-02-18 13:03:00,10.0,3.0,29.82,North,-999,-999.0,-999.0,72,-99.99,,,-99.99,,2013-02-18 19:03:00,
2013-02-18 13:12:00,10.0,3.0,29.82,North,-999,-999.0,-999.0,72,-99.99,,,-99.99,,2013-02-18 19:12:00,
2013-02-18 13:22:00,10.0,3.0,29.82,North,-999,-999.0,-999.0,72,-99.99,,,-99.99,,2013-02-18 19:22:00,
2013-02-18 13:33:00,10.0,3.0,29.83,North,-999,-999.0,-999.0,72,-99.99,,,-99.99,,2013-02-18 19:33:00,
2013-02-18 13:43:00,10.0,3.0,29.83,North,-999,-999.0,-999.0,72,-99.99,,,-99.99,,2013-02-18 19:43:00,
2013-02-18 13:53:00,10.0,3.0,29.84,North,-999,-999.0,-999.0,72,-99.99,,,-99.99,,2013-02-18 19:53:00,
2013-02-18 14:02:00,10.0,3.0,29.84,North,-999,-999.0,-999.0,72,-99.99,,,-99.99,,2013-02-18 20:02:00,
2013-02-18 14:12:00,10.0,3.0,29.84,North,-999,-999.0,-999.0,72,-99.99,,,-99.99,,2013-02-18 20:12:00,
2013-02-18 14:23:00,10.0,3.0,29.84,North,-999,-999.0,-999.0,72,-99.99,,,-99.99,,2013-02-18 20:23:00,
2013-02-18 14:33:00,10.0,5.0,29.85,North,-999,-999.0,-999.0,78,-99.99,,,-99.99,,2013-02-18 20:33:00,
2013-02-18 14:43:00,10.0,5.0,29.85,North,-999,-999.0,-999.0,78,-99.99,,,-99.99,,2013-02-18 20:43:00,
2013-02-18 14:53:00,10.0,5.0,29.85,North,-999,-999.0,-999.0,78,-99.99,,,-99.99,,2013-02-18 20:53:00,
2013-02-18 15:03:00,10.0,5.0,29.85,North,-999,-999.0,-999.0,78,-99.99,,,-99.99,,2013-02-18 21:03:00,
2013-02-18 15:12:00,10.0,5.0,29.85,North,-999,-999.0,-999.0,78,-99.99,,,-99.99,,2013-02-18 21:12:00,
2013-02-18 15:33:00,10.0,3.0,29.87,North,-999,-999.0,-999.0,72,-99.99,,,-99.99,,2013-02-18 21:33:00,
2013-02-18 15:43:00,10.0,3.0,29.87,North,-999,-999.0,-999.0,72,-99.99,,,-99.99,,2013-02-18 21:43:00,
2013-02-18 15:53:00,10.0,1.0,29.88,North,-999,-999.0,-999.0,66,-99.99,,,-99.99,,2013-02-18 21:53:00,
2013-02-18 16:02:00,10.0,1.0,29.88,North,-999,-999.0,-999.0,66,-99.99,,,-99.99,,2013-02-18 22:02:00,
2013-02-18 16:12:00,9.0,1.0,29.89,North,-999,-999.0,-999.0,71,-99.99,,,-99.99,,2013-02-18 22:12:00,
2013-02-18 16:22:00,9.0,1.0,29.89,North,-999,-999.0,-999.0,71,-99.99,,,-99.99,,2013-02-18 22:22:00,
2013-02-18 16:33:00,9.0,1.0,29.90,North,-999,-999.0,-999.0,71,-99.99,,,-99.99,,2013-02-18 22:33:00,
2013-02-18 16:43:00,9.0,1.0,29.90,North,-999,-999.0,-999.0,71,-99.99,,,-99.99,,2013-02-18 22:43:00,
2013-02-18 16:52:00,9.0,1.0,29.91,North,-999,-999.0,-999.0,71,-99.99,,,-99.99,,2013-02-18 22:52:00,
2013-02-18 17:02:00,9.0,1.0,29.91,North,-999,-999.0,-999.0,71,-99.99,,,-99.99,,2013-02-18 23:02:00,
2013-02-18 17:12:00,7.0,0.0,29.91,North,-999,-999.0,-999.0,71,-99.99,,,-99.99,,2013-02-18 23:12:00,
2013-02-18 17:22:00,7.0,0.0,29.91,North,-999,-999.0,-999.0,71,-99.99,,,-99.99,,2013-02-18 23:22:00,
2013-02-18 17:33:00,7.0,1.0,29.92,North,-999,-999.0,-999.0,78,-99.99,,,-99.99,,2013-02-18 23:33:00,
2013-02-18 17:42:00,7.0,1.0,29.92,North,-999,-999.0,-999.0,78,-99.99,,,-99.99,,2013-02-18 23:42:00,
2013-02-18 17:52:00,7.0,0.0,29.93,North,-999,-999.0,-999.0,71,-99.99,,,-99.99,,2013-02-18 23:52:00,
2013-02-18 18:03:00,7.0,0.0,29.93,North,-999,-999.0,-999.0,71,-99.99,,,-99.99,,2013-02-19 00:03:00,
2013-02-18 18:12:00,7.0,0.0,29.93,North,-999,-999.0,-999.0,71,-99.99,,,-99.99,,2013-02-19 00:12:00,
2013-02-18 18:22:00,7.0,0.0,29.93,North,-999,-999.0,-999.0,71,-99.99,,,-99.99,,2013-02-19 00:22:00,
2013-02-18 18:34:00,7.0,0.0,29.93,North,-999,-999.0,-999.0,71,-99.99,,,-99.99,,2013-02-19 00:34:00,
2013-02-18 18:55:00,7.0,0.0,29.97,North,-999,-999.0,-999.0,71,-99.99,,,-99.99,,2013-02-19 00:55:00,
2013-02-18 19:03:00,7.0,0.0,29.97,North,-999,-999.0,-999.0,71,-99.99,,,-99.99,,2013-02-19 01:03:00,
2013-02-18 19:14:00,7.0,0.0,29.97,North,-999,-999.0,-999.0,71,-99.99,,,-99.99,,2013-02-19 01:14:00,
2013-02-18 19:24:00,7.0,0.0,29.97,North,-999,-999.0,-999.0,71,-99.99,,,-99.99,,2013-02-19 01:24:00,
2013-02-18 19:34:00,5.0,-2.0,29.98,North,-999,-999.0,-999.0,71,-99.99,,,-99.99,,2013-02-19 01:34:00,
2013-02-18 19:45:00,5.0,-2.0,29.98,North,-999,-999.0,-999.0,71,-99.99,,,-99.99,,2013-02-19 01:45:00,
2013-02-18 20:03:00,5.0,-2.0,29.99,North,-999,-999.0,-999.0,71,-99.99,,,-99.99,,2013-02-19 02:03:00,
2013-02-18 20:13:00,3.0,-4.0,29.99,North,-999,-999.0,-999.0,71,-99.99,,,-99.99,,2013-02-19 02:13:00,
2013-02-18 20:23:00,3.0,-4.0,29.99,North,-999,-999.0,-999.0,71,-99.99,,,-99.99,,2013-02-19 02:23:00,
2013-02-18 20:34:00,3.0,-6.0,29.99,North,-999,-999.0,-999.0,65,-99.99,,,-99.99,,2013-02-19 02:34:00,
2013-02-18 20:42:00,3.0,-6.0,29.99,North,-999,-999.0,-999.0,65,-99.99,,,-99.99,,2013-02-19 02:42:00,
2013-02-18 20:53:00,3.0,-6.0,29.99,North,-999,-999.0,-999.0,65,-99.99,,,-99.99,,2013-02-19 02:53:00,
2013-02-18 21:06:00,3.0,-6.0,29.99,North,-999,-999.0,-999.0,65,-99.99,,,-99.99,,2013-02-19 03:06:00,
2013-02-18 21:13:00,3.0,-6.0,29.99,North,-999,-999.0,-999.0,65,-99.99,,,-99.99,,2013-02-19 03:13:00,
2013-02-18 21:35:00,1.0,-6.0,30.00,North,-999,-999.0,-999.0,71,-99.99,,,-99.99,,2013-02-19 03:35:00,
2013-02-18 21:45:00,1.0,-6.0,30.00,North,-999,-999.0,-999.0,71,-99.99,,,-99.99,,2013-02-19 03:45:00,
2013-02-18 22:02:00,1.0,-6.0,30.01,North,-999,-999.0,-999.0,71,-99.99,,,-99.99,,2013-02-19 04:02:00,
2013-02-18 22:13:00,1.0,-6.0,30.01,North,-999,-999.0,-999.0,71,-99.99,,,-99.99,,2013-02-19 04:13:00,
2013-02-18 22:23:00,1.0,-6.0,30.01,North,-999,-999.0,-999.0,71,-99.99,,,-99.99,,2013-02-19 04:23:00,
2013-02-18 22:33:00,1.0,-6.0,30.02,North,-999,-999.0,-999.0,71,-99.99,,,-99.99,,2013-02-19 04:33:00,
2013-02-18 22:45:00,1.0,-6.0,30.02,North,-999,-999.0,-999.0,71,-99.99,,,-99.99,,2013-02-19 04:45:00,
2013-02-18 22:55:00,1.0,-6.0,30.02,North,-999,-999.0,-999.0,71,-99.99,,,-99.99,,2013-02-19 04:55:00,
2013-02-18 23:02:00,1.0,-6.0,30.02,North,-999,-999.0,-999.0,71,-99.99,,,-99.99,,2013-02-19 05:02:00,
2013-02-18 23:12:00,1.0,-6.0,30.02,North,-999,-999.0,-999.0,71,-99.99,,,-99.99,,2013-02-19 05:12:00,
2013-02-18 23:22:00,1.0,-6.0,30.02,North,-999,-999.0,-999.0,71,-99.99,,,-99.99,,2013-02-19 05:22:00,
2013-02-18 23:32:00,1.0,-8.0,30.04,North,-999,-999.0,-999.0,65,-99.99,,,-99.99,,2013-02-19 05:32:00,
2013-02-18 23:43:00,1.0,-8.0,30.04,North,-999,-999.0,-999.0,65,-99.99,,,-99.99,,2013-02-19 05:43:00,
2013-02-18 23:52:00,1.0,-8.0,30.04,North,-999,-999.0,-999.0,65,-99.99,,,-99.99,,2013-02-19 05:52:00,